VCP39H BGSF-EPWA

Flight info

Callsign VCP39H
Flight time 5h 3m
Altitude 33000
Route 67N036W 66N022W 64N010W/M081F390 DCT ERSER/N0474F390 DCT EPOTU DCT PEVEB DCT LAGUM L621 KULUD DCT AMROR N983 ELPOL N195 SORIX
Aircraft A346/H-SDE2E3FGHIJ3J4J5M1RWXY/LB1D1

Departure

Time 2026-04-18 04:06
Airport Kangerlussuaq International Airport (BGSF)

Arrival

Time 2026-04-18 09:09
Airport Warsaw Chopin Airport (EPWA)
Time Latitude Longitude Altitude Speed Heading
2026-04-18 03:45 67.01211 -50.69511 173 ft 0 kts 286°
2026-04-18 04:01 67.01211 -50.69512 173 ft 0 kts 286°
2026-04-18 04:01 67.01224 -50.69569 175 ft 5 kts 321°
2026-04-18 04:01 67.01269 -50.69548 182 ft 10 kts 34°
2026-04-18 04:01 67.01340 -50.69384 191 ft 15 kts 49°
2026-04-18 04:02 67.01399 -50.69245 202 ft 7 kts 40°
2026-04-18 04:02 67.01426 -50.69184 206 ft 3 kts 37°
2026-04-18 04:02 67.01445 -50.69151 208 ft 3 kts 31°
2026-04-18 04:02 67.01479 -50.69098 212 ft 8 kts 32°
2026-04-18 04:03 67.01534 -50.69000 218 ft 9 kts 32°
2026-04-18 04:03 67.01592 -50.68957 222 ft 7 kts
2026-04-18 04:03 67.01623 -50.68960 226 ft 1 kts 353°
2026-04-18 04:03 67.01625 -50.68961 226 ft 0 kts 352°
2026-04-18 04:04 67.01633 -50.68963 227 ft 2 kts 352°
2026-04-18 04:04 67.01645 -50.68971 229 ft 0 kts 329°
2026-04-18 04:04 67.01646 -50.68975 230 ft 0 kts 314°
2026-04-18 04:04 67.01656 -50.69024 234 ft 5 kts 281°
2026-04-18 04:05 67.01656 -50.69052 236 ft 0 kts 260°
2026-04-18 04:05 67.01568 -50.69548 237 ft 72 kts 243°
2026-04-18 04:05 67.01196 -50.71288 205 ft 148 kts 243°
2026-04-18 04:05 67.00635 -50.73860 660 ft 172 kts 245°
2026-04-18 04:06 67.00116 -50.76653 1314 ft 182 kts 240°
2026-04-18 04:06 66.99584 -50.79616 2121 ft 186 kts 240°
2026-04-18 04:06 66.98830 -50.82280 2712 ft 193 kts 232°
2026-04-18 04:06 66.97955 -50.85038 3105 ft 210 kts 230°
2026-04-18 04:07 66.96701 -50.87097 3528 ft 229 kts 193°
2026-04-18 04:07 66.95064 -50.86956 4037 ft 246 kts 159°
2026-04-18 04:07 66.93657 -50.84480 4575 ft 259 kts 124°
2026-04-18 04:07 66.93038 -50.80251 5301 ft 262 kts 91°
2026-04-18 04:08 66.92988 -50.75641 6173 ft 264 kts 90°
2026-04-18 04:08 66.92877 -50.70961 7167 ft 266 kts 90°
2026-04-18 04:08 66.92744 -50.66322 8019 ft 268 kts 91°
2026-04-18 04:08 66.92602 -50.61635 8868 ft 269 kts 91°
2026-04-18 04:09 66.92458 -50.56916 9812 ft 270 kts 91°
2026-04-18 04:09 66.92310 -50.52106 10420 ft 281 kts 91°
2026-04-18 04:09 66.92152 -50.47003 10799 ft 299 kts 91°
2026-04-18 04:09 66.91981 -50.41602 11334 ft 312 kts 91°
2026-04-18 04:10 66.91805 -50.36115 12126 ft 316 kts 92°
2026-04-18 04:10 66.91623 -50.30605 12967 ft 318 kts 92°
2026-04-18 04:10 66.91439 -50.25016 13774 ft 321 kts 93°
2026-04-18 04:10 66.91250 -50.19358 14560 ft 324 kts 93°
2026-04-18 04:11 66.91055 -50.13618 15357 ft 326 kts 94°
2026-04-18 04:11 66.90855 -50.07875 16108 ft 329 kts 94°
2026-04-18 04:11 66.90654 -50.02089 16822 ft 332 kts 93°
2026-04-18 04:11 66.90450 -49.96278 17520 ft 335 kts 94°
2026-04-18 04:12 66.90242 -49.90405 18177 ft 338 kts 94°
2026-04-18 04:12 66.90028 -49.84475 18870 ft 341 kts 94°
2026-04-18 04:12 66.89809 -49.78424 19453 ft 345 kts 94°
2026-04-18 04:12 66.89590 -49.72369 20102 ft 347 kts 94°
2026-04-18 04:13 66.89313 -49.66279 20771 ft 350 kts 96°
2026-04-18 04:13 66.88937 -49.60191 21384 ft 352 kts 97°
2026-04-18 04:13 66.88555 -49.54069 22013 ft 354 kts 97°
2026-04-18 04:13 66.88167 -49.47927 22584 ft 357 kts 97°
2026-04-18 04:14 66.87766 -49.41608 23175 ft 359 kts 97°
2026-04-18 04:14 66.87357 -49.35190 23706 ft 363 kts 97°
2026-04-18 04:14 66.86946 -49.28838 24131 ft 369 kts 97°
2026-04-18 04:14 66.86528 -49.22396 24638 ft 372 kts 97°
2026-04-18 04:15 66.86105 -49.15916 25163 ft 374 kts 97°
2026-04-18 04:15 66.85799 -49.09457 25665 ft 375 kts 92°
2026-04-18 04:15 66.85736 -49.02773 26144 ft 377 kts 87°
2026-04-18 04:15 66.85918 -48.96166 26587 ft 380 kts 83°
2026-04-18 04:16 66.86245 -48.89478 27038 ft 383 kts 82°
2026-04-18 04:16 66.86588 -48.82749 27475 ft 386 kts 82°
2026-04-18 04:16 66.86932 -48.76002 27906 ft 389 kts 82°
2026-04-18 04:16 66.87279 -48.69157 28328 ft 392 kts 82°
2026-04-18 04:17 66.87626 -48.62250 28699 ft 395 kts 82°
2026-04-18 04:17 66.87970 -48.55328 29051 ft 398 kts 82°
2026-04-18 04:17 66.88314 -48.48331 29388 ft 400 kts 82°
2026-04-18 04:17 66.88654 -48.41353 29729 ft 403 kts 82°
2026-04-18 04:18 66.88997 -48.34234 30051 ft 405 kts 83°
2026-04-18 04:18 66.89336 -48.27118 30379 ft 408 kts 83°
2026-04-18 04:18 66.89677 -48.19921 30708 ft 410 kts 83°
2026-04-18 04:18 66.90016 -48.12682 31007 ft 412 kts 83°
2026-04-18 04:19 66.90353 -48.05439 31303 ft 415 kts 83°
2026-04-18 04:19 66.90689 -47.98144 31535 ft 418 kts 83°
2026-04-18 04:19 66.91021 -47.90875 31721 ft 420 kts 83°
2026-04-18 04:19 66.91355 -47.83447 31913 ft 422 kts 84°
2026-04-18 04:20 66.91684 -47.76061 32125 ft 423 kts 84°
2026-04-18 04:20 66.92013 -47.68583 32357 ft 424 kts 84°
2026-04-18 04:20 66.92336 -47.61169 32549 ft 425 kts 84°
2026-04-18 04:20 66.92659 -47.53673 32750 ft 427 kts 84°
2026-04-18 04:21 66.92979 -47.46187 32908 ft 428 kts 84°
2026-04-18 04:21 66.93295 -47.38673 33081 ft 430 kts 84°
2026-04-18 04:21 66.93611 -47.31055 33295 ft 431 kts 85°
2026-04-18 04:21 66.93922 -47.23512 33515 ft 432 kts 85°
2026-04-18 04:22 66.94231 -47.15899 33760 ft 433 kts 85°
2026-04-18 04:22 66.94535 -47.08300 34052 ft 434 kts 85°
2026-04-18 04:22 66.94838 -47.00631 34353 ft 434 kts 85°
2026-04-18 04:22 66.95134 -46.93055 34635 ft 435 kts 85°
2026-04-18 04:23 66.95434 -46.85287 34865 ft 437 kts 85°
2026-04-18 04:23 66.95726 -46.77626 35061 ft 440 kts 85°
2026-04-18 04:23 66.96025 -46.69700 35276 ft 442 kts 85°
2026-04-18 04:23 66.96313 -46.61960 35484 ft 443 kts 86°
2026-04-18 04:24 66.96597 -46.54191 35701 ft 444 kts 85°
2026-04-18 04:24 66.96883 -46.46316 35889 ft 446 kts 86°
2026-04-18 04:24 66.97162 -46.38488 36068 ft 448 kts 86°
2026-04-18 04:25 66.97716 -46.22617 36181 ft 451 kts 86°
2026-04-18 04:25 66.98255 -46.06738 36174 ft 451 kts 86°
2026-04-18 04:26 66.98779 -45.90852 36174 ft 451 kts 86°
2026-04-18 04:26 66.99291 -45.74797 36171 ft 451 kts 86°
2026-04-18 04:27 66.99779 -45.58960 36163 ft 452 kts 86°
2026-04-18 04:27 67.00259 -45.42921 36168 ft 452 kts 86°
2026-04-18 04:28 67.00719 -45.26957 36171 ft 452 kts 88°
2026-04-18 04:28 67.01164 -45.11003 36168 ft 452 kts 88°
2026-04-18 04:29 67.01595 -44.94977 36175 ft 452 kts 88°
2026-04-18 04:29 67.02005 -44.79079 36170 ft 452 kts 88°
2026-04-18 04:30 67.02401 -44.63070 36172 ft 453 kts 88°
2026-04-18 04:30 67.02784 -44.47001 36168 ft 453 kts 88°
2026-04-18 04:31 67.03149 -44.30966 36161 ft 453 kts 89°
2026-04-18 04:31 67.03499 -44.14900 36164 ft 453 kts 89°
2026-04-18 04:32 67.03833 -43.98819 36163 ft 453 kts 89°
2026-04-18 04:32 67.04151 -43.82707 36161 ft 453 kts 89°
2026-04-18 04:33 67.04454 -43.66565 36156 ft 453 kts 89°
2026-04-18 04:33 67.04739 -43.50514 36151 ft 453 kts 89°
2026-04-18 04:34 67.05006 -43.34468 36142 ft 454 kts 90°
2026-04-18 04:34 67.05258 -43.18344 36129 ft 454 kts 90°
2026-04-18 04:35 67.05496 -43.02181 36122 ft 455 kts 90°
2026-04-18 04:35 67.05719 -42.86003 36106 ft 455 kts 90°
2026-04-18 04:36 67.05921 -42.69954 36109 ft 455 kts 90°
2026-04-18 04:36 67.06110 -42.53742 36107 ft 455 kts 90°
2026-04-18 04:37 67.06281 -42.37571 36117 ft 454 kts 90°
2026-04-18 04:37 67.06436 -42.21417 36117 ft 455 kts 91°
2026-04-18 04:38 67.06575 -42.05275 36117 ft 455 kts 91°
2026-04-18 04:38 67.06699 -41.89070 36123 ft 456 kts 91°
2026-04-18 04:39 67.06805 -41.72791 36131 ft 455 kts 91°
2026-04-18 04:39 67.06895 -41.56590 36121 ft 456 kts 91°
2026-04-18 04:40 67.06968 -41.40409 36125 ft 456 kts 91°
2026-04-18 04:40 67.07024 -41.24063 36132 ft 456 kts 92°
2026-04-18 04:41 67.07066 -41.07915 36132 ft 456 kts 92°
2026-04-18 04:41 67.07091 -40.91754 36157 ft 456 kts 92°
2026-04-18 04:42 67.07098 -40.75437 36155 ft 456 kts 92°
2026-04-18 04:42 67.07089 -40.59201 36155 ft 456 kts 92°
2026-04-18 04:43 67.07063 -40.42974 36163 ft 456 kts 92°
2026-04-18 04:43 67.07021 -40.26691 36174 ft 455 kts 94°
2026-04-18 04:44 67.06963 -40.10474 36186 ft 455 kts 93°
2026-04-18 04:44 67.06889 -39.94378 36185 ft 455 kts 94°
2026-04-18 04:45 67.06798 -39.78205 36193 ft 455 kts 94°
2026-04-18 04:45 67.06691 -39.62085 36185 ft 455 kts 94°
2026-04-18 04:46 67.06566 -39.45810 36179 ft 456 kts 94°
2026-04-18 04:46 67.06425 -39.29620 36187 ft 455 kts 94°
2026-04-18 04:47 67.06269 -39.13470 36184 ft 455 kts 95°
2026-04-18 04:47 67.06094 -38.97265 36174 ft 455 kts 95°
2026-04-18 04:48 67.05906 -38.81031 36174 ft 455 kts 95°
2026-04-18 04:48 67.05701 -38.64916 36182 ft 456 kts 95°
2026-04-18 04:49 67.05477 -38.48709 36186 ft 456 kts 95°
2026-04-18 04:49 67.05238 -38.32531 36189 ft 455 kts 95°
2026-04-18 04:50 67.04984 -38.16397 36189 ft 455 kts 95°
2026-04-18 04:50 67.04710 -38.00140 36185 ft 455 kts 95°
2026-04-18 04:51 67.04422 -37.83952 36187 ft 456 kts 95°
2026-04-18 04:51 67.04119 -37.67818 36187 ft 456 kts 95°
2026-04-18 04:52 67.03797 -37.51591 36176 ft 456 kts 95°
2026-04-18 04:52 67.03458 -37.35278 36173 ft 457 kts 96°
2026-04-18 04:53 67.03095 -37.18837 36171 ft 456 kts 96°
2026-04-18 04:53 67.02723 -37.02657 36178 ft 456 kts 96°
2026-04-18 04:54 67.02331 -36.86263 36166 ft 456 kts 96°
2026-04-18 04:54 67.01926 -36.70058 36132 ft 457 kts 96°
2026-04-18 04:55 67.01505 -36.53833 36150 ft 457 kts 96°
2026-04-18 04:55 67.01070 -36.37661 36184 ft 458 kts 96°
2026-04-18 04:56 67.00375 -36.13189 36207 ft 459 kts 97°
2026-04-18 04:56 66.99902 -35.97096 36225 ft 460 kts 97°
2026-04-18 04:57 66.99470 -35.80639 36255 ft 461 kts 97°
2026-04-18 04:57 66.99042 -35.64428 36270 ft 462 kts 97°
2026-04-18 04:58 66.98584 -35.47902 36272 ft 462 kts 97°
2026-04-18 04:58 66.98112 -35.31581 36274 ft 462 kts 98°
2026-04-18 04:59 66.97623 -35.15301 36280 ft 462 kts 97°
2026-04-18 04:59 66.97110 -34.98726 36313 ft 462 kts 98°
2026-04-18 05:00 66.96588 -34.82499 36340 ft 463 kts 98°
2026-04-18 05:00 66.96117 -34.68206 36368 ft 463 kts 98°
2026-04-18 05:01 66.95557 -34.51786 36405 ft 463 kts 98°
2026-04-18 05:01 66.94982 -34.35400 36454 ft 464 kts 98°
2026-04-18 05:02 66.94390 -34.19011 36503 ft 464 kts 99°
2026-04-18 05:02 66.93786 -34.02764 36582 ft 464 kts 98°
2026-04-18 05:03 66.93155 -33.86253 36654 ft 464 kts 98°
2026-04-18 05:03 66.92515 -33.69921 36686 ft 464 kts 98°
2026-04-18 05:04 66.91850 -33.53473 36691 ft 466 kts 98°
2026-04-18 05:04 66.91170 -33.37055 36688 ft 466 kts 98°
2026-04-18 05:05 66.90473 -33.20636 36685 ft 466 kts 99°
2026-04-18 05:05 66.89759 -33.04239 36684 ft 466 kts 99°
2026-04-18 05:06 66.89031 -32.87879 36689 ft 466 kts 99°
2026-04-18 05:06 66.88285 -32.71504 36701 ft 466 kts 99°
2026-04-18 05:07 66.87525 -32.55232 36705 ft 466 kts 99°
2026-04-18 05:07 66.86746 -32.38901 36707 ft 466 kts 99°
2026-04-18 05:08 66.85949 -32.22574 36706 ft 465 kts 101°
2026-04-18 05:08 66.85129 -32.06124 36716 ft 465 kts 101°
2026-04-18 05:09 66.84302 -31.89897 36709 ft 465 kts 101°
2026-04-18 05:09 66.83458 -31.73646 36710 ft 465 kts 101°
2026-04-18 05:10 66.82597 -31.57434 36713 ft 465 kts 101°
2026-04-18 05:10 66.81716 -31.41150 36717 ft 465 kts 101°
2026-04-18 05:11 66.80827 -31.25021 36725 ft 465 kts 102°
2026-04-18 05:11 66.79916 -31.08837 36729 ft 464 kts 102°
2026-04-18 05:12 66.78994 -30.92734 36739 ft 463 kts 102°
2026-04-18 05:12 66.78049 -30.76548 36746 ft 464 kts 102°
2026-04-18 05:13 66.77091 -30.60442 36748 ft 464 kts 102°
2026-04-18 05:13 66.76120 -30.44395 36748 ft 465 kts 102°
2026-04-18 05:14 66.75125 -30.28233 36747 ft 465 kts 102°
2026-04-18 05:14 66.74113 -30.12074 36747 ft 464 kts 103°
2026-04-18 05:15 66.73090 -29.96016 36750 ft 464 kts 103°
2026-04-18 05:15 66.72049 -29.79949 36752 ft 465 kts 103°
2026-04-18 05:16 66.70993 -29.63896 36754 ft 466 kts 103°
2026-04-18 05:16 66.69919 -29.47836 36759 ft 465 kts 103°
2026-04-18 05:17 66.68825 -29.31761 36764 ft 465 kts 104°
2026-04-18 05:17 66.67709 -29.15614 36770 ft 465 kts 103°
2026-04-18 05:18 66.66583 -28.99593 36782 ft 466 kts 104°
2026-04-18 05:18 66.65437 -28.83514 36795 ft 466 kts 103°
2026-04-18 05:19 66.64280 -28.67506 36798 ft 466 kts 103°
2026-04-18 05:19 66.63101 -28.51448 36796 ft 466 kts 103°
2026-04-18 05:20 66.61911 -28.35471 36796 ft 466 kts 103°
2026-04-18 05:20 66.60712 -28.19604 36794 ft 465 kts 104°
2026-04-18 05:21 66.59495 -28.03726 36798 ft 465 kts 104°
2026-04-18 05:21 66.58249 -27.87710 36800 ft 465 kts 104°
2026-04-18 05:22 66.56994 -27.71808 36800 ft 466 kts 104°
2026-04-18 05:22 66.55729 -27.56000 36803 ft 465 kts 104°
2026-04-18 05:23 66.54443 -27.40129 36811 ft 465 kts 104°
2026-04-18 05:23 66.53132 -27.24162 36814 ft 465 kts 105°
2026-04-18 05:24 66.51827 -27.08488 36819 ft 465 kts 105°
2026-04-18 05:24 66.50492 -26.92656 36824 ft 465 kts 105°
2026-04-18 05:25 66.49136 -26.76807 36827 ft 465 kts 105°
2026-04-18 05:25 66.47762 -26.60915 36827 ft 465 kts 105°
2026-04-18 05:26 66.46384 -26.45185 36829 ft 465 kts 105°
2026-04-18 05:26 66.44982 -26.29396 36832 ft 465 kts 106°
2026-04-18 05:27 66.43574 -26.13732 36834 ft 464 kts 106°
2026-04-18 05:27 66.42149 -25.98075 36834 ft 465 kts 106°
2026-04-18 05:28 66.40700 -25.82355 36839 ft 465 kts 106°
2026-04-18 05:28 66.39243 -25.66707 36842 ft 464 kts 106°
2026-04-18 05:29 66.37769 -25.51063 36844 ft 464 kts 106°
2026-04-18 05:29 66.36276 -25.35425 36844 ft 464 kts 106°
2026-04-18 05:30 66.34761 -25.19733 36841 ft 464 kts 107°
2026-04-18 05:30 66.33241 -25.04172 36852 ft 464 kts 107°
2026-04-18 05:31 66.31713 -24.88691 36864 ft 464 kts 107°
2026-04-18 05:31 66.30171 -24.73258 36875 ft 463 kts 107°
2026-04-18 05:32 66.28602 -24.57726 36878 ft 463 kts 107°
2026-04-18 05:32 66.27026 -24.42299 36882 ft 463 kts 107°
2026-04-18 05:33 66.25441 -24.26948 36879 ft 462 kts 108°
2026-04-18 05:33 66.23843 -24.11631 36892 ft 463 kts 108°
2026-04-18 05:34 66.22218 -23.96231 36879 ft 463 kts 108°
2026-04-18 05:34 66.20583 -23.80883 36864 ft 463 kts 108°
2026-04-18 05:35 66.18934 -23.65572 36856 ft 462 kts 108°
2026-04-18 05:35 66.17264 -23.50237 36849 ft 462 kts 108°
2026-04-18 05:36 66.15578 -23.34899 36839 ft 462 kts 109°
2026-04-18 05:36 66.13879 -23.19616 36826 ft 462 kts 109°
2026-04-18 05:37 66.12177 -23.04458 36829 ft 462 kts 109°
2026-04-18 05:37 66.10442 -22.89155 36837 ft 462 kts 109°
2026-04-18 05:38 66.08700 -22.73952 36829 ft 462 kts 109°
2026-04-18 05:38 66.06950 -22.58827 36828 ft 462 kts 109°
2026-04-18 05:39 66.05177 -22.43635 36842 ft 462 kts 109°
2026-04-18 05:39 66.03409 -22.28635 36834 ft 462 kts 109°
2026-04-18 05:40 66.01600 -22.13432 36823 ft 461 kts 110°
2026-04-18 05:40 65.99791 -21.98392 36808 ft 461 kts 109°
2026-04-18 05:41 65.97998 -21.83207 36808 ft 461 kts 109°
2026-04-18 05:41 65.96224 -21.68205 36823 ft 462 kts 109°
2026-04-18 05:42 65.94432 -21.53205 36831 ft 462 kts 109°
2026-04-18 05:42 65.92611 -21.38128 36837 ft 462 kts 109°
2026-04-18 05:43 65.90775 -21.23075 36853 ft 462 kts 110°
2026-04-18 05:43 65.88929 -21.08086 36859 ft 462 kts 110°
2026-04-18 05:44 65.87065 -20.93085 36860 ft 462 kts 110°
2026-04-18 05:44 65.85201 -20.78231 36863 ft 462 kts 110°
2026-04-18 05:45 65.83301 -20.63220 36864 ft 461 kts 110°
2026-04-18 05:45 65.81407 -20.48396 36866 ft 461 kts 110°
2026-04-18 05:46 65.79490 -20.33520 36862 ft 460 kts 111°
2026-04-18 05:46 65.77567 -20.18728 36856 ft 460 kts 111°
2026-04-18 05:47 65.75623 -20.03918 36842 ft 460 kts 111°
2026-04-18 05:47 65.73659 -19.89090 36833 ft 461 kts 111°
2026-04-18 05:48 65.71689 -19.74344 36840 ft 460 kts 110°
2026-04-18 05:48 65.69706 -19.59630 36846 ft 461 kts 110°
2026-04-18 05:49 65.67692 -19.44811 36850 ft 461 kts 110°
2026-04-18 05:49 65.65683 -19.30159 36846 ft 461 kts 111°
2026-04-18 05:50 65.63649 -19.15443 36832 ft 461 kts 111°
2026-04-18 05:50 65.61614 -19.00843 36799 ft 460 kts 111°
2026-04-18 05:51 65.59557 -18.86211 36774 ft 460 kts 111°
2026-04-18 05:51 65.57491 -18.71657 36776 ft 460 kts 111°
2026-04-18 05:52 65.55399 -18.57031 36760 ft 460 kts 111°
2026-04-18 05:52 65.53291 -18.42410 36747 ft 460 kts 111°
2026-04-18 05:53 65.51149 -18.27678 36780 ft 460 kts 112°
2026-04-18 05:53 65.49026 -18.13195 36807 ft 460 kts 112°
2026-04-18 05:54 65.46897 -17.98787 36792 ft 460 kts 112°
2026-04-18 05:54 65.44750 -17.84370 36783 ft 460 kts 112°
2026-04-18 05:55 65.42584 -17.69952 36792 ft 461 kts 112°
2026-04-18 05:55 65.40380 -17.55391 36791 ft 460 kts 112°
2026-04-18 05:56 65.38184 -17.41003 36789 ft 460 kts 112°
2026-04-18 05:56 65.35983 -17.26694 36793 ft 460 kts 113°
2026-04-18 05:57 65.32640 -17.05169 36798 ft 460 kts 112°
2026-04-18 05:58 65.30396 -16.90854 36791 ft 460 kts 112°
2026-04-18 05:58 65.28145 -16.76613 36781 ft 461 kts 112°
2026-04-18 05:59 65.25873 -16.62349 36762 ft 460 kts 112°
2026-04-18 05:59 65.23592 -16.48136 36731 ft 460 kts 112°
2026-04-18 06:00 65.21288 -16.33885 36727 ft 459 kts 114°
2026-04-18 06:00 65.18987 -16.19765 36747 ft 459 kts 114°
2026-04-18 06:01 65.16666 -16.05618 36746 ft 459 kts 114°
2026-04-18 06:01 65.14329 -15.91488 36747 ft 459 kts 114°
2026-04-18 06:02 65.11985 -15.77426 36736 ft 459 kts 113°
2026-04-18 06:02 65.09621 -15.63338 36731 ft 459 kts 113°
2026-04-18 06:03 65.07260 -15.49375 36740 ft 459 kts 114°
2026-04-18 06:03 65.04887 -15.35437 36731 ft 460 kts 113°
2026-04-18 06:04 65.02493 -15.21490 36730 ft 460 kts 114°
2026-04-18 06:04 65.00079 -15.07518 36748 ft 460 kts 114°
2026-04-18 06:05 64.97642 -14.93514 36755 ft 460 kts 114°
2026-04-18 06:05 64.95204 -14.79609 36733 ft 460 kts 114°
2026-04-18 06:06 64.92761 -14.65775 36708 ft 459 kts 114°
2026-04-18 06:06 64.90305 -14.51961 36714 ft 459 kts 114°
2026-04-18 06:07 64.87836 -14.38176 36706 ft 459 kts 114°
2026-04-18 06:07 64.85356 -14.24423 36685 ft 458 kts 115°
2026-04-18 06:08 64.82853 -14.10635 36680 ft 459 kts 115°
2026-04-18 06:08 64.80356 -13.96975 36711 ft 459 kts 115°
2026-04-18 06:09 64.77836 -13.83279 36713 ft 459 kts 115°
2026-04-18 06:09 64.75312 -13.69662 36710 ft 459 kts 115°
2026-04-18 06:10 64.72764 -13.56008 36707 ft 459 kts 115°
2026-04-18 06:10 64.70204 -13.42388 36712 ft 460 kts 115°
2026-04-18 06:11 64.67645 -13.28857 36705 ft 459 kts 115°
2026-04-18 06:11 64.65055 -13.15263 36703 ft 459 kts 115°
2026-04-18 06:12 64.62457 -13.01711 36705 ft 459 kts 115°
2026-04-18 06:12 64.59861 -12.88257 36707 ft 460 kts 115°
2026-04-18 06:13 64.57227 -12.74692 36701 ft 461 kts 115°
2026-04-18 06:13 64.54591 -12.61214 36701 ft 461 kts 115°
2026-04-18 06:14 64.51924 -12.47667 36694 ft 460 kts 115°
2026-04-18 06:14 64.49241 -12.34129 36700 ft 460 kts 116°
2026-04-18 06:15 64.46571 -12.20747 36701 ft 460 kts 116°
2026-04-18 06:15 64.43884 -12.07367 36701 ft 460 kts 116°
2026-04-18 06:16 64.41185 -11.94009 36679 ft 461 kts 116°
2026-04-18 06:16 64.38472 -11.80667 36666 ft 461 kts 116°
2026-04-18 06:17 64.35739 -11.67313 36661 ft 461 kts 116°
2026-04-18 06:17 64.33003 -11.54033 36658 ft 461 kts 116°
2026-04-18 06:18 64.30245 -11.40729 36658 ft 461 kts 116°
2026-04-18 06:18 64.27472 -11.27440 36653 ft 460 kts 117°
2026-04-18 06:19 64.24697 -11.14223 36642 ft 461 kts 117°
2026-04-18 06:19 64.21918 -11.01070 36653 ft 461 kts 117°
2026-04-18 06:20 64.19121 -10.87913 36649 ft 462 kts 117°
2026-04-18 06:20 64.16310 -10.74774 36653 ft 462 kts 117°
2026-04-18 06:21 64.13483 -10.61640 36665 ft 462 kts 117°
2026-04-18 06:21 64.10631 -10.48471 36662 ft 462 kts 117°
2026-04-18 06:22 64.07786 -10.35408 36658 ft 462 kts 117°
2026-04-18 06:22 64.04940 -10.22424 36664 ft 462 kts 118°
2026-04-18 06:23 64.02054 -10.09346 36656 ft 462 kts 118°
2026-04-18 06:23 63.99243 -9.96251 36648 ft 462 kts 115°
2026-04-18 06:24 63.96637 -9.83031 36641 ft 462 kts 115°
2026-04-18 06:24 63.93999 -9.69784 36638 ft 463 kts 115°
2026-04-18 06:25 63.91335 -9.56473 36634 ft 463 kts 115°
2026-04-18 06:25 63.88673 -9.43245 36637 ft 463 kts 115°
2026-04-18 06:26 63.86002 -9.30060 36630 ft 463 kts 116°
2026-04-18 06:26 63.83309 -9.16845 36634 ft 463 kts 116°
2026-04-18 06:27 63.80602 -9.03652 36637 ft 464 kts 116°
2026-04-18 06:27 63.77889 -8.90501 36640 ft 464 kts 116°
2026-04-18 06:28 63.75164 -8.77372 36647 ft 464 kts 116°
2026-04-18 06:28 63.72421 -8.64250 36648 ft 464 kts 116°
2026-04-18 06:29 63.69669 -8.51168 36656 ft 464 kts 116°
2026-04-18 06:29 63.66884 -8.38006 36656 ft 464 kts 116°
2026-04-18 06:30 63.64110 -8.24981 36650 ft 464 kts 117°
2026-04-18 06:30 63.61310 -8.11915 36654 ft 465 kts 117°
2026-04-18 06:31 63.58505 -7.98910 36645 ft 465 kts 117°
2026-04-18 06:31 63.55701 -7.85987 36649 ft 464 kts 117°
2026-04-18 06:32 63.52873 -7.73023 36656 ft 464 kts 117°
2026-04-18 06:32 63.50039 -7.60120 36652 ft 464 kts 117°
2026-04-18 06:33 63.47182 -7.47186 36657 ft 465 kts 117°
2026-04-18 06:33 63.44313 -7.34283 36657 ft 465 kts 118°
2026-04-18 06:34 63.41438 -7.21427 36650 ft 464 kts 118°
2026-04-18 06:34 63.38553 -7.08602 36648 ft 465 kts 118°
2026-04-18 06:35 63.35654 -6.95797 36649 ft 464 kts 118°
2026-04-18 06:35 63.32759 -6.83079 36655 ft 465 kts 118°
2026-04-18 06:36 63.29836 -6.70317 36658 ft 465 kts 118°
2026-04-18 06:36 63.26908 -6.57609 36668 ft 465 kts 118°
2026-04-18 06:37 63.23950 -6.44842 36665 ft 465 kts 118°
2026-04-18 06:37 63.20987 -6.32136 36664 ft 465 kts 119°
2026-04-18 06:38 63.18036 -6.19548 36667 ft 465 kts 119°
2026-04-18 06:38 63.15048 -6.06879 36662 ft 465 kts 119°
2026-04-18 06:39 63.12045 -5.94230 36664 ft 465 kts 119°
2026-04-18 06:39 63.09056 -5.81705 36663 ft 464 kts 119°
2026-04-18 06:40 63.06055 -5.69196 36662 ft 465 kts 119°
2026-04-18 06:40 63.03034 -5.56678 36678 ft 465 kts 119°
2026-04-18 06:41 62.99987 -5.44124 36680 ft 465 kts 119°
2026-04-18 06:41 62.96948 -5.31680 36681 ft 464 kts 120°
2026-04-18 06:42 62.93907 -5.19297 36681 ft 463 kts 120°
2026-04-18 06:42 62.90854 -5.06931 36683 ft 463 kts 120°
2026-04-18 06:43 62.87777 -4.94541 36686 ft 463 kts 120°
2026-04-18 06:43 62.84710 -4.82258 36686 ft 464 kts 120°
2026-04-18 06:44 62.81602 -4.69882 36685 ft 464 kts 120°
2026-04-18 06:44 62.78499 -4.57595 36686 ft 464 kts 120°
2026-04-18 06:45 62.75387 -4.45340 36682 ft 464 kts 120°
2026-04-18 06:45 62.72261 -4.33101 36687 ft 464 kts 121°
2026-04-18 06:46 62.69131 -4.20909 36690 ft 463 kts 121°
2026-04-18 06:46 62.65987 -4.08732 36699 ft 463 kts 121°
2026-04-18 06:47 62.62820 -3.96529 36702 ft 464 kts 121°
2026-04-18 06:47 62.59666 -3.84445 36705 ft 463 kts 121°
2026-04-18 06:48 62.56487 -3.72326 36707 ft 463 kts 121°
2026-04-18 06:48 62.53311 -3.60290 36714 ft 463 kts 121°
2026-04-18 06:49 62.50119 -3.48256 36721 ft 463 kts 121°
2026-04-18 06:49 62.46920 -3.36263 36723 ft 463 kts 121°
2026-04-18 06:50 62.43704 -3.24271 36726 ft 462 kts 122°
2026-04-18 06:50 62.40501 -3.12392 36732 ft 463 kts 122°
2026-04-18 06:51 62.37243 -3.00369 36736 ft 463 kts 122°
2026-04-18 06:51 62.34004 -2.88481 36740 ft 463 kts 122°
2026-04-18 06:52 62.30757 -2.76625 36739 ft 463 kts 122°
2026-04-18 06:52 62.27492 -2.64764 36741 ft 463 kts 122°
2026-04-18 06:53 62.24224 -2.52958 36744 ft 462 kts 122°
2026-04-18 06:53 62.20947 -2.41179 36745 ft 462 kts 122°
2026-04-18 06:54 62.17649 -2.29388 36744 ft 462 kts 123°
2026-04-18 06:54 62.14359 -2.17685 36747 ft 463 kts 123°
2026-04-18 06:55 62.11050 -2.05976 36756 ft 463 kts 123°
2026-04-18 06:55 62.07722 -1.94264 36768 ft 463 kts 123°
2026-04-18 06:56 62.04378 -1.82554 36773 ft 463 kts 123°
2026-04-18 06:56 62.01038 -1.70913 36775 ft 463 kts 123°
2026-04-18 06:57 61.97684 -1.59284 36778 ft 462 kts 123°
2026-04-18 06:57 61.92637 -1.41902 36781 ft 462 kts 123°
2026-04-18 06:58 61.89255 -1.30328 36784 ft 463 kts 124°
2026-04-18 06:58 61.85857 -1.18758 36785 ft 463 kts 124°
2026-04-18 06:59 61.82472 -1.07289 36787 ft 463 kts 124°
2026-04-18 06:59 61.79066 -0.95806 36792 ft 463 kts 124°
2026-04-18 07:00 61.75648 -0.84338 36801 ft 462 kts 124°
2026-04-18 07:00 61.72213 -0.72875 36806 ft 462 kts 124°
2026-04-18 07:01 61.68782 -0.61482 36811 ft 462 kts 124°
2026-04-18 07:01 61.65342 -0.50114 36823 ft 462 kts 124°
2026-04-18 07:02 61.61879 -0.38721 36831 ft 463 kts 124°
2026-04-18 07:02 61.58404 -0.27344 36835 ft 463 kts 125°
2026-04-18 07:03 61.54903 -0.15940 36836 ft 463 kts 125°
2026-04-18 07:03 61.51411 -0.04631 36842 ft 462 kts 125°
2026-04-18 07:04 61.47693 0.06201 36850 ft 460 kts 130°
2026-04-18 07:04 61.43782 0.16862 36851 ft 461 kts 129°
2026-04-18 07:05 61.39901 0.27520 36857 ft 461 kts 129°
2026-04-18 07:05 61.36084 0.38225 36866 ft 461 kts 129°
2026-04-18 07:06 61.32285 0.48859 36868 ft 462 kts 129°
2026-04-18 07:06 61.28453 0.59525 36875 ft 462 kts 129°
2026-04-18 07:07 61.24612 0.70167 36879 ft 462 kts 129°
2026-04-18 07:07 61.20773 0.80748 36887 ft 462 kts 129°
2026-04-18 07:08 61.16910 0.91351 36888 ft 462 kts 129°
2026-04-18 07:08 61.13047 1.01904 36896 ft 462 kts 129°
2026-04-18 07:09 61.09190 1.12396 36900 ft 462 kts 130°
2026-04-18 07:09 61.05294 1.22940 36902 ft 462 kts 130°
2026-04-18 07:10 61.01405 1.33416 36909 ft 462 kts 130°
2026-04-18 07:10 60.97505 1.43875 36911 ft 462 kts 130°
2026-04-18 07:11 60.93619 1.54253 36916 ft 462 kts 130°
2026-04-18 07:11 60.89753 1.64528 36919 ft 463 kts 130°
2026-04-18 07:12 60.85839 1.74886 36918 ft 463 kts 131°
2026-04-18 07:12 60.81905 1.85253 36919 ft 462 kts 131°
2026-04-18 07:13 60.77955 1.95614 36925 ft 462 kts 131°
2026-04-18 07:13 60.74009 2.05913 36932 ft 462 kts 131°
2026-04-18 07:14 60.70038 2.16237 36935 ft 461 kts 131°
2026-04-18 07:14 60.66089 2.26452 36938 ft 462 kts 131°
2026-04-18 07:15 60.62112 2.36701 36945 ft 462 kts 131°
2026-04-18 07:15 60.58134 2.46904 36953 ft 462 kts 131°
2026-04-18 07:16 60.54140 2.57106 36957 ft 462 kts 131°
2026-04-18 07:16 60.50159 2.67227 36957 ft 462 kts 132°
2026-04-18 07:17 60.46144 2.77388 36963 ft 462 kts 132°
2026-04-18 07:17 60.42165 2.87417 36966 ft 461 kts 132°
2026-04-18 07:18 60.38147 2.97499 36973 ft 461 kts 132°
2026-04-18 07:18 60.34129 3.07538 36980 ft 461 kts 132°
2026-04-18 07:19 60.30105 3.17546 36983 ft 461 kts 132°
2026-04-18 07:19 60.26086 3.27502 36992 ft 461 kts 132°
2026-04-18 07:20 60.22033 3.37500 36995 ft 461 kts 132°
2026-04-18 07:20 60.17984 3.47440 37007 ft 461 kts 132°
2026-04-18 07:21 60.13940 3.57331 37010 ft 461 kts 132°
2026-04-18 07:21 60.09867 3.67245 37012 ft 460 kts 133°
2026-04-18 07:22 60.05809 3.77081 37019 ft 460 kts 133°
2026-04-18 07:22 60.01734 3.86920 37021 ft 460 kts 133°
2026-04-18 07:23 59.97671 3.96682 37025 ft 460 kts 133°
2026-04-18 07:23 59.93603 4.06423 37028 ft 460 kts 133°
2026-04-18 07:24 59.89502 4.16197 37032 ft 461 kts 133°
2026-04-18 07:24 59.85405 4.25920 37035 ft 460 kts 133°
2026-04-18 07:25 59.81305 4.35611 37038 ft 460 kts 133°
2026-04-18 07:25 59.77194 4.45286 37048 ft 460 kts 133°
2026-04-18 07:26 59.73100 4.54884 37055 ft 460 kts 133°
2026-04-18 07:26 59.68989 4.64477 37053 ft 460 kts 133°
2026-04-18 07:27 59.64845 4.74111 37064 ft 460 kts 134°
2026-04-18 07:27 59.60699 4.83705 37059 ft 460 kts 134°
2026-04-18 07:28 59.56539 4.93290 37284 ft 466 kts 134°
2026-04-18 07:28 59.54452 4.98080 37565 ft 465 kts 134°
2026-04-18 07:28 59.52349 5.02901 37822 ft 464 kts 134°
2026-04-18 07:29 59.50250 5.07704 38053 ft 464 kts 133°
2026-04-18 07:29 59.48127 5.12548 38257 ft 465 kts 133°
2026-04-18 07:29 59.46042 5.17301 38520 ft 466 kts 133°
2026-04-18 07:29 59.43929 5.22109 38772 ft 466 kts 133°
2026-04-18 07:30 59.41810 5.26918 38995 ft 467 kts 133°
2026-04-18 07:30 59.39700 5.31697 39057 ft 468 kts 133°
2026-04-18 07:30 59.35438 5.41322 39063 ft 468 kts 133°
2026-04-18 07:31 59.31173 5.50911 39070 ft 469 kts 133°
2026-04-18 07:31 59.26899 5.60480 39073 ft 469 kts 133°
2026-04-18 07:32 59.22611 5.70040 39073 ft 469 kts 134°
2026-04-18 07:32 59.18310 5.79591 39079 ft 469 kts 134°
2026-04-18 07:33 59.14032 5.89051 39075 ft 469 kts 134°
2026-04-18 07:33 59.09712 5.98565 39079 ft 469 kts 134°
2026-04-18 07:34 59.05397 6.08025 39080 ft 470 kts 134°
2026-04-18 07:34 59.01071 6.17473 39101 ft 469 kts 134°
2026-04-18 07:35 58.96729 6.26915 39112 ft 469 kts 134°
2026-04-18 07:35 58.92396 6.36305 39101 ft 470 kts 134°
2026-04-18 07:36 58.88026 6.45732 39074 ft 470 kts 134°
2026-04-18 07:36 58.83703 6.55024 39077 ft 470 kts 134°
2026-04-18 07:37 58.79328 6.64383 39086 ft 470 kts 134°
2026-04-18 07:37 58.74945 6.73724 39095 ft 470 kts 135°
2026-04-18 07:38 58.70549 6.83054 39120 ft 470 kts 135°
2026-04-18 07:38 58.66202 6.92243 39115 ft 469 kts 135°
2026-04-18 07:39 58.61829 7.01451 39128 ft 469 kts 135°
2026-04-18 07:39 58.57427 7.10686 39126 ft 469 kts 135°
2026-04-18 07:40 58.53033 7.19861 39124 ft 470 kts 135°
2026-04-18 07:40 58.48626 7.29030 39134 ft 470 kts 135°
2026-04-18 07:41 58.44201 7.38201 39135 ft 471 kts 135°
2026-04-18 07:41 58.39790 7.47307 39134 ft 470 kts 135°
2026-04-18 07:42 58.35370 7.56389 39157 ft 470 kts 135°
2026-04-18 07:42 58.30952 7.65438 39148 ft 470 kts 136°
2026-04-18 07:43 58.26495 7.74528 39160 ft 470 kts 136°
2026-04-18 07:43 58.22084 7.83492 39175 ft 469 kts 136°
2026-04-18 07:44 58.17621 7.92523 39167 ft 470 kts 136°
2026-04-18 07:44 58.13191 8.01452 39186 ft 470 kts 136°
2026-04-18 07:45 58.08718 8.10434 39196 ft 470 kts 136°
2026-04-18 07:45 58.04228 8.19413 39179 ft 469 kts 136°
2026-04-18 07:46 57.99776 8.28281 39187 ft 469 kts 136°
2026-04-18 07:46 57.95307 8.37146 39182 ft 469 kts 136°
2026-04-18 07:47 57.90825 8.46010 39171 ft 470 kts 136°
2026-04-18 07:47 57.86324 8.54872 39161 ft 470 kts 136°
2026-04-18 07:48 57.81840 8.63668 39176 ft 471 kts 136°
2026-04-18 07:48 57.77319 8.72504 39168 ft 470 kts 137°
2026-04-18 07:49 57.72802 8.81297 39176 ft 470 kts 137°
2026-04-18 07:49 57.68276 8.90073 39166 ft 471 kts 137°
2026-04-18 07:50 57.63744 8.98826 39174 ft 471 kts 137°
2026-04-18 07:50 57.59207 9.07559 39178 ft 471 kts 137°
2026-04-18 07:51 57.54675 9.16247 39191 ft 471 kts 137°
2026-04-18 07:51 57.50116 9.24952 39177 ft 471 kts 137°
2026-04-18 07:52 57.45560 9.33621 39187 ft 472 kts 137°
2026-04-18 07:52 57.40970 9.42320 39187 ft 472 kts 137°
2026-04-18 07:53 57.36407 9.50941 39202 ft 473 kts 137°
2026-04-18 07:53 57.31797 9.59614 39188 ft 473 kts 137°
2026-04-18 07:54 57.27188 9.68254 39190 ft 472 kts 138°
2026-04-18 07:54 57.22578 9.76866 39186 ft 472 kts 139°
2026-04-18 07:55 57.17962 9.85456 39180 ft 473 kts 139°
2026-04-18 07:55 57.13382 9.94065 39167 ft 475 kts 136°
2026-04-18 07:56 57.09170 10.03397 39176 ft 479 kts 129°
2026-04-18 07:56 57.05464 10.13580 39191 ft 480 kts 125°
2026-04-18 07:57 57.01908 10.23885 39187 ft 480 kts 125°
2026-04-18 07:57 56.98331 10.34185 39188 ft 480 kts 125°
2026-04-18 07:58 56.92954 10.49572 39194 ft 482 kts 126°
2026-04-18 07:59 56.89343 10.59842 39196 ft 482 kts 125°
2026-04-18 07:59 56.85718 10.70109 39193 ft 483 kts 126°
2026-04-18 08:00 56.82101 10.80317 39203 ft 482 kts 126°
2026-04-18 08:00 56.78446 10.90590 39211 ft 482 kts 126°
2026-04-18 08:01 56.74812 11.00755 39200 ft 483 kts 126°
2026-04-18 08:01 56.71162 11.10934 39193 ft 482 kts 126°
2026-04-18 08:02 56.67492 11.21126 39198 ft 482 kts 126°
2026-04-18 08:02 56.63821 11.31269 39201 ft 483 kts 126°
2026-04-18 08:03 56.60111 11.41476 39203 ft 483 kts 126°
2026-04-18 08:03 56.56437 11.51566 39199 ft 484 kts 126°
2026-04-18 08:04 56.52739 11.61677 39192 ft 484 kts 126°
2026-04-18 08:04 56.49008 11.71804 39210 ft 484 kts 127°
2026-04-18 08:05 56.45271 11.81897 39212 ft 484 kts 126°
2026-04-18 08:05 56.41552 11.91913 39215 ft 485 kts 126°
2026-04-18 08:06 56.37786 12.02012 39215 ft 485 kts 126°
2026-04-18 08:06 56.34035 12.12027 39220 ft 485 kts 126°
2026-04-18 08:07 56.30258 12.22076 39230 ft 485 kts 126°
2026-04-18 08:07 56.26455 12.32035 39224 ft 485 kts 128°
2026-04-18 08:08 56.22232 12.41389 39239 ft 484 kts 132°
2026-04-18 08:08 56.17887 12.50597 39232 ft 484 kts 132°
2026-04-18 08:09 56.13547 12.59779 39235 ft 484 kts 132°
2026-04-18 08:09 56.09204 12.68943 39234 ft 484 kts 133°
2026-04-18 08:10 56.04855 12.78083 39237 ft 485 kts 133°
2026-04-18 08:10 56.00483 12.87243 39243 ft 485 kts 133°
2026-04-18 08:11 55.96127 12.96328 39231 ft 485 kts 133°
2026-04-18 08:11 55.91730 13.05468 39234 ft 486 kts 133°
2026-04-18 08:12 55.87360 13.14511 39233 ft 486 kts 133°
2026-04-18 08:12 55.82948 13.23609 39231 ft 486 kts 133°
2026-04-18 08:13 55.78531 13.32687 39234 ft 486 kts 132°
2026-04-18 08:13 55.74092 13.41776 39236 ft 487 kts 133°
2026-04-18 08:14 55.69677 13.50778 39231 ft 487 kts 132°
2026-04-18 08:14 55.65189 13.59897 39234 ft 488 kts 132°
2026-04-18 08:15 55.60746 13.68891 39234 ft 488 kts 133°
2026-04-18 08:15 55.56303 13.77849 39239 ft 488 kts 133°
2026-04-18 08:16 55.51843 13.86811 39241 ft 488 kts 133°
2026-04-18 08:16 55.47364 13.95774 39234 ft 488 kts 133°
2026-04-18 08:17 55.42845 14.04781 39243 ft 489 kts 133°
2026-04-18 08:17 55.38356 14.13701 39241 ft 489 kts 133°
2026-04-18 08:18 55.33860 14.22604 39248 ft 490 kts 133°
2026-04-18 08:18 55.29356 14.31484 39240 ft 490 kts 133°
2026-04-18 08:19 55.24806 14.40426 39241 ft 490 kts 133°
2026-04-18 08:19 55.20291 14.49260 39251 ft 491 kts 132°
2026-04-18 08:20 55.15705 14.58203 39254 ft 492 kts 132°
2026-04-18 08:20 55.11145 14.67069 39255 ft 492 kts 133°
2026-04-18 08:21 55.06589 14.75894 39259 ft 492 kts 133°
2026-04-18 08:21 55.01992 14.84759 39257 ft 493 kts 133°
2026-04-18 08:22 54.97407 14.93571 39254 ft 493 kts 133°
2026-04-18 08:22 54.92835 15.02337 39249 ft 493 kts 133°
2026-04-18 08:23 54.88229 15.11126 39245 ft 493 kts 133°
2026-04-18 08:23 54.83592 15.19962 39247 ft 493 kts 133°
2026-04-18 08:24 54.79002 15.28693 39244 ft 493 kts 132°
2026-04-18 08:24 54.74356 15.37501 39242 ft 493 kts 132°
2026-04-18 08:25 54.69761 15.46186 39242 ft 494 kts 132°
2026-04-18 08:25 54.65144 15.54877 39243 ft 494 kts 132°
2026-04-18 08:26 54.60579 15.63700 39241 ft 494 kts 128°
2026-04-18 08:26 54.56459 15.73167 39241 ft 493 kts 126°
2026-04-18 08:27 54.52446 15.82705 39244 ft 494 kts 126°
2026-04-18 08:27 54.48402 15.92265 39247 ft 494 kts 126°
2026-04-18 08:28 54.44349 16.01799 39248 ft 494 kts 125°
2026-04-18 08:28 54.40238 16.11435 39245 ft 494 kts 125°
2026-04-18 08:29 54.36178 16.20916 39244 ft 494 kts 125°
2026-04-18 08:29 54.32055 16.30501 39248 ft 495 kts 125°
2026-04-18 08:30 54.27984 16.39931 39249 ft 495 kts 125°
2026-04-18 08:30 54.23888 16.49387 39249 ft 495 kts 125°
2026-04-18 08:31 54.19764 16.58868 39247 ft 495 kts 125°
2026-04-18 08:31 54.15638 16.68324 39251 ft 495 kts 126°
2026-04-18 08:32 54.11529 16.77703 39244 ft 496 kts 125°
2026-04-18 08:32 54.07391 16.87118 39246 ft 496 kts 125°
2026-04-18 08:33 54.03251 16.96501 39245 ft 496 kts 125°
2026-04-18 08:33 53.99099 17.05862 39233 ft 496 kts 125°
2026-04-18 08:34 53.94947 17.15173 39231 ft 497 kts 125°
2026-04-18 08:34 53.90798 17.24453 39232 ft 497 kts 125°
2026-04-18 08:35 53.86643 17.33721 39238 ft 497 kts 125°
2026-04-18 08:35 53.82440 17.43062 39235 ft 497 kts 125°
2026-04-18 08:36 53.78200 17.52450 39235 ft 498 kts 125°
2026-04-18 08:36 53.74005 17.61711 39244 ft 498 kts 124°
2026-04-18 08:37 53.69804 17.70945 39243 ft 497 kts 126°
2026-04-18 08:37 53.65593 17.80174 39240 ft 497 kts 125°
2026-04-18 08:38 53.61396 17.89341 39164 ft 498 kts 125°
2026-04-18 08:38 53.59286 17.93932 38876 ft 497 kts 125°
2026-04-18 08:38 53.57167 17.98531 38597 ft 495 kts 125°
2026-04-18 08:38 53.55067 18.03073 38305 ft 492 kts 125°
2026-04-18 08:39 53.52975 18.07594 37989 ft 490 kts 125°
2026-04-18 08:39 53.50888 18.12097 37642 ft 490 kts 125°
2026-04-18 08:39 53.48804 18.16586 37257 ft 490 kts 125°
2026-04-18 08:39 53.46717 18.21077 36812 ft 492 kts 124°
2026-04-18 08:40 53.44599 18.25632 36339 ft 493 kts 124°
2026-04-18 08:40 53.42498 18.30138 35834 ft 493 kts 124°
2026-04-18 08:40 53.40414 18.34600 35302 ft 495 kts 124°
2026-04-18 08:40 53.38303 18.39114 34754 ft 496 kts 124°
2026-04-18 08:41 53.36153 18.43705 34137 ft 498 kts 124°
2026-04-18 08:41 53.34033 18.48231 33555 ft 498 kts 124°
2026-04-18 08:41 53.31911 18.52747 32984 ft 498 kts 124°
2026-04-18 08:41 53.29776 18.57280 32413 ft 498 kts 124°
2026-04-18 08:42 53.27659 18.61766 31841 ft 498 kts 124°
2026-04-18 08:42 53.25496 18.66344 31335 ft 495 kts 125°
2026-04-18 08:42 53.23385 18.70801 31029 ft 490 kts 125°
2026-04-18 08:42 53.21289 18.75222 30616 ft 488 kts 125°
2026-04-18 08:43 53.19200 18.79615 30152 ft 485 kts 125°
2026-04-18 08:43 53.17110 18.83995 29727 ft 488 kts 125°
2026-04-18 08:43 53.15001 18.88417 29301 ft 489 kts 125°
2026-04-18 08:43 53.12891 18.92836 28893 ft 487 kts 125°
2026-04-18 08:44 53.10807 18.97200 28484 ft 483 kts 125°
2026-04-18 08:44 53.08729 19.01544 28076 ft 480 kts 125°
2026-04-18 08:44 53.06665 19.05840 27670 ft 476 kts 125°
2026-04-18 08:44 53.04617 19.10087 27264 ft 472 kts 125°
2026-04-18 08:45 53.02559 19.14356 26853 ft 469 kts 124°
2026-04-18 08:45 53.00702 19.18718 26490 ft 463 kts 119°
2026-04-18 08:45 52.98984 19.23201 26146 ft 460 kts 117°
2026-04-18 08:45 52.97310 19.27659 25781 ft 457 kts 118°
2026-04-18 08:46 52.95644 19.32067 25412 ft 452 kts 118°
2026-04-18 08:46 52.93956 19.36489 25035 ft 448 kts 118°
2026-04-18 08:46 52.92298 19.40796 24668 ft 443 kts 118°
2026-04-18 08:46 52.90648 19.45049 24292 ft 439 kts 118°
2026-04-18 08:47 52.89001 19.49275 23937 ft 435 kts 118°
2026-04-18 08:47 52.87378 19.53433 23564 ft 431 kts 119°
2026-04-18 08:47 52.85775 19.57528 23198 ft 427 kts 119°
2026-04-18 08:47 52.84155 19.61655 22783 ft 424 kts 119°
2026-04-18 08:48 52.82555 19.65727 22363 ft 421 kts 120°
2026-04-18 08:48 52.80974 19.69740 21967 ft 417 kts 120°
2026-04-18 08:48 52.79405 19.73716 21578 ft 413 kts 120°
2026-04-18 08:48 52.77851 19.77649 21175 ft 409 kts 120°
2026-04-18 08:49 52.76301 19.81565 20720 ft 406 kts 120°
2026-04-18 08:49 52.74782 19.85400 20274 ft 403 kts 121°
2026-04-18 08:49 52.73257 19.89241 19830 ft 400 kts 121°
2026-04-18 08:49 52.71732 19.93079 19382 ft 397 kts 121°
2026-04-18 08:50 52.70229 19.96852 18939 ft 393 kts 121°
2026-04-18 08:50 52.68745 20.00571 18505 ft 390 kts 121°
2026-04-18 08:50 52.67262 20.04282 18057 ft 387 kts 121°
2026-04-18 08:50 52.65786 20.07969 17601 ft 385 kts 121°
2026-04-18 08:51 52.64324 20.11618 17151 ft 382 kts 121°
2026-04-18 08:51 52.62862 20.15263 16720 ft 379 kts 121°
2026-04-18 08:51 52.61414 20.18867 16288 ft 376 kts 121°
2026-04-18 08:51 52.59989 20.22407 15863 ft 374 kts 121°
2026-04-18 08:52 52.58563 20.25947 15441 ft 371 kts 121°
2026-04-18 08:52 52.57144 20.29468 14994 ft 369 kts 121°
2026-04-18 08:52 52.55746 20.32929 14585 ft 366 kts 121°
2026-04-18 08:52 52.54344 20.36396 14171 ft 364 kts 121°
2026-04-18 08:53 52.52944 20.39849 13741 ft 361 kts 121°
2026-04-18 08:53 52.51553 20.43275 13332 ft 358 kts 121°
2026-04-18 08:53 52.50194 20.46623 12905 ft 356 kts 121°
2026-04-18 08:53 52.48823 20.49994 12483 ft 353 kts 120°
2026-04-18 08:54 52.47472 20.53308 12277 ft 343 kts 120°
2026-04-18 08:54 52.46178 20.56476 12096 ft 334 kts 120°
2026-04-18 08:54 52.44902 20.59605 11925 ft 324 kts 120°
2026-04-18 08:54 52.43677 20.62599 11758 ft 315 kts 120°
2026-04-18 08:55 52.42469 20.65554 11589 ft 306 kts 121°
2026-04-18 08:55 52.41307 20.68389 11371 ft 300 kts 120°
2026-04-18 08:55 52.40152 20.71209 11042 ft 297 kts 120°
2026-04-18 08:55 52.39001 20.74016 10701 ft 295 kts 120°
2026-04-18 08:56 52.37875 20.76760 10362 ft 294 kts 120°
2026-04-18 08:56 52.36739 20.79526 10015 ft 292 kts 120°
2026-04-18 08:56 52.35606 20.82279 9671 ft 291 kts 120°
2026-04-18 08:56 52.34406 20.84955 9307 ft 293 kts 129°
2026-04-18 08:57 52.31401 20.89348 8765 ft 292 kts 136°
2026-04-18 08:57 52.29854 20.91517 8512 ft 291 kts 136°
2026-04-18 08:57 52.28353 20.93673 8262 ft 289 kts 135°
2026-04-18 08:58 52.26866 20.95848 8014 ft 288 kts 135°
2026-04-18 08:58 52.25376 20.98051 7759 ft 286 kts 134°
2026-04-18 08:58 52.23929 21.00201 7506 ft 282 kts 134°
2026-04-18 08:58 52.22482 21.02355 7254 ft 278 kts 134°
2026-04-18 08:59 52.21073 21.04453 7002 ft 274 kts 134°
2026-04-18 08:59 52.19666 21.06548 6745 ft 271 kts 134°
2026-04-18 08:59 52.18300 21.08579 6495 ft 268 kts 134°
2026-04-18 08:59 52.16935 21.10610 6238 ft 264 kts 134°
2026-04-18 09:00 52.15554 21.12584 5966 ft 262 kts 140°
2026-04-18 09:00 52.14049 21.14182 5704 ft 261 kts 148°
2026-04-18 09:00 52.12463 21.15584 5463 ft 258 kts 149°
2026-04-18 09:00 52.10885 21.16936 5215 ft 255 kts 150°
2026-04-18 09:01 52.09321 21.18281 4949 ft 253 kts 150°
2026-04-18 09:01 52.07771 21.19621 4694 ft 250 kts 150°
2026-04-18 09:01 52.06237 21.20953 4434 ft 248 kts 149°
2026-04-18 09:01 52.04723 21.22272 4176 ft 246 kts 149°
2026-04-18 09:02 52.03238 21.23565 3924 ft 244 kts 149°
2026-04-18 09:02 52.01747 21.24865 3662 ft 242 kts 149°
2026-04-18 09:02 52.00199 21.25896 3385 ft 243 kts 174°
2026-04-18 09:02 51.98586 21.25363 3121 ft 238 kts 215°
2026-04-18 09:03 51.97570 21.23391 3001 ft 223 kts 251°
2026-04-18 09:03 51.97283 21.21043 3003 ft 211 kts 270°
2026-04-18 09:03 51.97223 21.18671 3019 ft 206 kts 271°
2026-04-18 09:03 51.97161 21.16446 2992 ft 189 kts 275°
2026-04-18 09:04 51.97465 21.14485 2962 ft 175 kts 305°
2026-04-18 09:04 51.98242 21.13031 2991 ft 172 kts 322°
2026-04-18 09:04 51.99217 21.11901 2992 ft 172 kts 331°
2026-04-18 09:04 52.00263 21.10952 2995 ft 171 kts 334°
2026-04-18 09:05 52.01323 21.10049 2994 ft 171 kts 334°
2026-04-18 09:05 52.02372 21.09152 2999 ft 171 kts 334°
2026-04-18 09:05 52.03428 21.08236 2996 ft 172 kts 333°
2026-04-18 09:05 52.04470 21.07323 2815 ft 171 kts 333°
2026-04-18 09:06 52.05512 21.06406 2586 ft 170 kts 333°
2026-04-18 09:06 52.06527 21.05513 2348 ft 159 kts 333°
2026-04-18 09:06 52.07459 21.04691 2127 ft 148 kts 333°
2026-04-18 09:06 52.08351 21.03892 1950 ft 147 kts 333°
2026-04-18 09:07 52.09238 21.03081 1826 ft 146 kts 333°
2026-04-18 09:07 52.10146 21.02335 1712 ft 146 kts 333°
2026-04-18 09:07 52.11055 21.01588 1507 ft 146 kts 333°
2026-04-18 09:07 52.11946 21.00811 1278 ft 145 kts 330°
2026-04-18 09:08 52.12834 21.00032 964 ft 144 kts 330°
2026-04-18 09:08 52.13724 20.99297 750 ft 144 kts 328°
2026-04-18 09:08 52.14592 20.98499 575 ft 143 kts 328°
2026-04-18 09:08 52.15460 20.97709 395 ft 142 kts 328°
2026-04-18 09:09 52.16250 20.96995 346 ft 101 kts 331°
2026-04-18 09:09 52.16684 20.96616 340 ft 60 kts 333°
2026-04-18 09:09 52.16994 20.96514 342 ft 26 kts
2026-04-18 09:09 52.17052 20.96524 342 ft 0 kts 20°
2026-04-18 09:10 52.17066 20.96540 342 ft 5 kts 40°
2026-04-18 09:10 52.17102 20.96617 341 ft 11 kts 60°
2026-04-18 09:11 52.17144 20.96736 342 ft 11 kts 62°
2026-04-18 09:11 52.17179 20.96866 344 ft 11 kts 62°
2026-04-18 09:11 52.17200 20.96930 345 ft 3 kts 62°
2026-04-18 09:11 52.17204 20.96943 346 ft 0 kts 62°